Regional Weather Roundup
Issued by NWS Grand Forks, ND

Home | Current Version | Previous Version | Graphics & Text | Print | Product List | Glossary On
Versions: 1 2 3 4 5 6 7 8 9 10 11 12 13 14 15 16 17 18 19 20 21 22 23 24 25 26 27 28 29 30 31 32 33 34 35 36 37 38 39 40 41 42 43 44 45 46 47 48 49 50
000
ASUS43 KFGF 061931
RWRFGF
PRAIRIE TO PINES  WEATHER ROUNDUP
NATIONAL WEATHER SERVICE EASTERN NORTH DAKOTA/GRAND FORKS ND
200 PM CDT WED MAY 06 2015

 **SATELLITE DATA USED TO AUGMENT SKY COVER AT AUTOMATED STATIONS**
 *****  WEATHER ACROSS EASTERN NORTH DAKOTA  *****

CITY           SKY/WX    TMP DP  RH WIND       PRES   REMARKS
GRAND FORKS    CLOUDY    63  59  87 SE14G23   29.84F
GRAND FRKS AFB CLOUDY    63  59  88 SE14      29.83F
GRAND FRKS NWS   N/A     61 N/A N/A SE18        N/A
DEVILS LAKE    CLOUDY    57  54  88 SE14      29.77F
FARGO          LGT RAIN  64  60  87 SE13      29.83F FOG
WAHPETON ARPT  CLOUDY    63  57  82 SE14G21   29.82F
$$

 ***** WEATHER ACROSS CENTRAL AND WESTERN NORTH DAKOTA  *****

CITY           SKY/WX    TMP DP  RH WIND       PRES   REMARKS
BISMARCK       CLOUDY    66  62  87 SE18      29.68F
MINOT          LGT RAIN  60  58  92 E10       29.69F FOG
JAMESTOWN      CLOUDY    61  58  90 SE16G25   29.76F
MINOT AFB      LGT RAIN  61  61 100 E10       29.69F FOG
GARRISON         N/A     62  59  90 SE14      29.68F
WILLISTON      LGT RAIN  60  57  89 S3        29.69F
DICKINSON      LGT RAIN  60  56  86 SE7       29.66F
HETTINGER      LGT RAIN  58  56  93 SW3       29.67F FOG
$$

 *****  OTHER AIRPORT OBSERVATIONS IN OUR AREA  *****

CITY           SKY/WX    TMP DP  RH WIND       PRES   REMARKS
WALHALLA       MOCLDY    59  59 100 SE10G22   29.82F FOG
GRAFTON AIRPOR CLOUDY    61  61 100 SE16      29.84F FOG
VALLEY CITY AR LGT RAIN  61  61 100 SE21G30   29.79F
CANDO          CLOUDY    57  57 100 SE17      29.78F FOG
CAVALIER APRT  CLOUDY    59  59 100 S14       29.82F FOG
GWINNER        CLOUDY    63  63 100 E18       29.77F
SHEYENNE NWR     N/A     62  61  95 SE13      29.95S
ROLLA          NOT AVBL
 ***** THE ABOVE OBSERVATIONS ARE NON NWS ARE NOT QUALITY
       CONTROLLED AND MAY MIS-REPORT RAIN FOR SNOW...
$$

  *****  WEATHER ACROSS NORTHERN MINNESOTA  *****

CITY           SKY/WX    TMP DP  RH WIND       PRES   REMARKS
FLAG ISLAND    CLOUDY    57  52  82 S9        29.92S
WARROAD        CLOUDY    68  57  68 SE14      29.91F
ROSEAU         CLOUDY    72  55  56 SE12G17   29.88F
HALLOCK        CLOUDY    64  61  88 S12       29.84F
THF RVR FALLS  CLOUDY    64  57  77 SE10      29.88S
BAUDETTE       CLOUDY    62  54  74 SE15      29.94F
WASKISH        CLOUDY    70  55  60 E10       29.93F
CROOKSTON      LGT RAIN  63  61  94 SE14G21   29.86F
$$
  *****  WEATHER ACROSS CENTRAL AND WEST MINNESOTA  *****

CITY           SKY/WX    TMP DP  RH WIND       PRES   REMARKS
FOSSTON        LGT RAIN  61  54  77 SE6       29.90S
BEMIDJI        DRIZZLE   61  55  79 SE12      29.93F
PARK RAPIDS    CLOUDY    64  54  69 SE14G20   29.91F
ELBOW LAKE     FAIR      64  57  80 E17G25    29.83F
WADENA         CLOUDY    61  55  82 SE14      29.91F HAZE
DETROIT LAKES  CLOUDY    63  55  77 SE14      29.90S
MOORHEAD       RAIN      64  61  88 SE9       29.85F
FERGUS FALLS   CLOUDY    64  57  77 SE17      29.84F
MORRIS MN      CLOUDY    70  59  68 E23       29.79F
STAPLES        CLOUDY    64  55  72 E9        29.92F
$$
  *****  WEATHER ELSEWHERE ACROSS MINNESOTA  *****

CITY           SKY/WX    TMP DP  RH WIND       PRES   REMARKS
DULUTH         CLOUDY    56  49  77 E13       30.06F
INTRNTL FALLS  CLOUDY    66  54  65 SE13      29.97F
ELY            CLOUDY    59  48  67 SE8       30.05F
CLOQUET        CLOUDY    57  48  72 E14       30.03F
WHEATON        CLOUDY    63  59  88 E20       29.80F
BRAINERD       CLOUDY    63  55  75 SE9G21    29.97F
HIBBING        CLOUDY    61  51  70 SE12      30.03F
ALEXANDRIA     CLOUDY    64  57  78 E20G25    29.89F
SAINT CLOUD    CLOUDY    68  57  68 E12       29.93F
MINNEAPOLIS    CLOUDY    69  59  70 E16       29.96F
$$

  *****  WEATHER ACROSS SOUTH DAKOTA  *****

CITY           SKY/WX    TMP DP  RH WIND       PRES   REMARKS
SIOUX FALLS    CLOUDY    66  61  84 S21G31    29.77F
BROOKINGS      CLOUDY    66  61  82 SE22G35   29.76F
WATERTOWN      LGT RAIN  63  60  90 SE15G26   29.75S FOG
HURON          CLOUDY    64  61  90 SE20G28   29.69F
SISSETON         N/A     63  62  97 SE16      29.77F
ABERDEEN       HVY RAIN  64  62  93 E14       29.71F FOG
MITCHELL       CLOUDY    68  62  81 S22G33    29.68F
PIERRE         CLOUDY    68  60  75 SE15      29.63F
MOBRIDGE       CLOUDY    70  61  73 SE16      29.65F
RAPID CITY     PTSUNNY   66  54  65 SW7       29.63F
$$

  *****  SOME WEATHER IN NEARBY STATES *****

CITY           SKY/WX    TMP DP  RH WIND       PRES   REMARKS
GLASGOW MT     PTSUNNY   52  41  66 NW23      29.81R
GREAT FALLS MT PTSUNNY   52  26  36 VRB3      29.93S
CHEYENNE WY    CLOUDY    54  44  69 N14G21    29.71S
SCOTTSBLUFF NE CLOUDY    62  51  67 NE6       29.64F
OMAHA NE       TSTM      68  62  81 S20       29.83F
DES MOINES IA  CLOUDY    76  58  53 S20       29.93F
DAVENPORT IA   MOSUNNY   81  52  36 S25G36    30.05F
CHICAGO IL     MOSUNNY   74  58  57 NE12      30.12F
EAU CLAIRE WI  PTSUNNY   69  58  67 SE8       30.04F
LA CROSSE WI   MOSUNNY   77  60  55 SE8       30.02F
$$

  *****  SOME NATIONAL WEATHER *****

CITY           SKY/WX    TMP DP  RH WIND       PRES   REMARKS
LA GUARDIA NY  CLOUDY    65  35  33 NE9       30.26F
RALEIGH NC     PTSUNNY   82  56  40 E6        30.17F
ATLANTA GA     MOSUNNY   79  54  41 NE7       30.16F
NEW ORLEANS LA PTSUNNY   85  62  46 S13       30.05F
OKLAHOMA CITY  CLOUDY    73  65  75 S21G29    29.87F
ALBUQUERQUE NM PTSUNNY   66  41  40 W9G18     29.92F
SALT LAKE CITY CLOUDY    62  39  42 W9        29.74F THUNDER
LOS ANGELES CA CLOUDY    61  53  75 W12       29.91S
BOISE ID       PTSUNNY   59  27  29 NW16G23   29.84F
SEATTLE WA     PTSUNNY   52  43  71 NW5       30.14F
$$

*** WEATHER ACROSS MANITOBA...SASKATCHEWAN AND ONTARIO ***
                ***ONTARIO***

CITY           SKY/WX    TMP DP  RH WIND       PRES   REMARKS
GERALDTON      MOSUNNY   73  28  19 S9G22     30.13F
THUNDER BAY    PTSUNNY   64  30  27 E14       30.14F
SIOUX LOOKOUT  CLOUDY    72  48  43 S12G20    30.00F
TORONTO        MOSUNNY   70  39  32 SE6       30.24F
BIG TROUT LK   MOSUNNY   52  27  37 E10G17    30.12F
PICKLE LAKE    MOSUNNY   73  36  25 S15G23    30.02F
DRYDEN         PTSUNNY   70  50  49 S17G24    29.98F
KENORA         CLOUDY    66  52  59 SE13G20   29.95F
$$
                *** MANITOBA***

CITY           SKY/WX    TMP DP  RH WIND       PRES   REMARKS
BRANDON        CLOUDY    64  59  82 S14       29.77F
DAUPHIN        CLOUDY    68  55  64 S14       29.73S
ISLAND LAKE    MOSUNNY   55  36  47 E12G25    29.95
PILOT MOUND      N/A     59  55  88 SE15        N/A
THE PAS        PTSUNNY   50  34  53 E17G29    29.76F
THOMPSON       CLOUDY    32  23  69 NE16G28   30.09F WCI  21
WINNIPEG       LGT RAIN  70  55  60 S22       29.83F
LYNN LAKE      LGT SNOW  27  25  93 NE15G23   30.10F VSB 3/4 WCI  15
CHURCHILL      PTSUNNY   21 N/A N/A NW12        N/A  WCI   9
GILLAM         HVY SNOW  21  19  93 NE13      30.24F VSB 1/4 WCI   9
$$
                ***SASKATCHEWAN***

CITY           SKY/WX    TMP DP  RH WIND       PRES   REMARKS
ESTEVAN        LGT RAIN  61  55  82 S17       29.71S
KINDERSLEY     PTSUNNY   50  34  53 W20G30    29.85S
LLOYDMINSTER   LGT RAIN  37  36  93 N13       29.85R
PRINCE ALBERT  CLOUDY    41  39  93 NE8       29.77R
REGINA         CLOUDY    50  48  93 NW16      29.75S
YORKTON        CLOUDY    66  54  63 S16G25    29.68R
N. BATTLEFORD  CLOUDY    45  41  87 W18       29.82R
LA RONGE       CLOUDY    36  32  87 NE15G22   29.89F
SASKATOON      CLOUDY    48  45  87 NW7       29.77R
SWIFT CURRENT  CLOUDY    50  37  62 W23G36    29.82R
$$
NOTE: THESE ARE AUTOMATED STATIONS WITH LIMITED QUALITY CONTROL
      "FAIR" INDICATES FEW OR NO CLOUDS BELOW 12,000 FEET WITH NO
      SIGNIFICANT WEATHER AND/OR OBSTRUCTIONS TO VISIBILITY.
      SKY/WX - SKY CONDITION AND SIGNIFICANT WEATHER.
      TMP - AIR TEMPERATURE.    DP   - DEWPOINT TEMPERATURE.
      RH  - RELATIVE HUMIDITY.  PRES - PRESSURE.
      HX  - HEAT INDEX.         WCI  - WIND CHILL INDEX.
$



USA.gov is the U.S. government's official web portal to all federal, state and local government web resources and services.